Niagara Falls, NY

6:06 AM EDT on July 28, 2017 (GMT -0400)
Niagara Falls International

Weather History for KIAG - September, 2013

Change the Weather History Date:

Thursday, September 5, 2013

  Actual Average Record
Temperature  
Mean Temperature 58 °F -  
Max Temperature 64 °F 74 °F 88 °F (2015)
Min Temperature 51 °F 55 °F 44 °F (2000)
Degree Days  
Heating Degree Days 7    
Growing Degree Days 8 (Base 50)    
Moisture  
Dew Point 47 °F    
Average Humidity 67    
Maximum Humidity 90    
Minimum Humidity 40    
Precipitation  
Precipitation 0.00 in - - ()
Sea Level Pressure  
Sea Level Pressure 30.13 in    
Wind  
Wind Speed 8 mph (NNW)    
Max Wind Speed 15 mph    
Max Gust Speed 21 mph    
Visibility 10 miles    
Events      
Averages and records for this station are not official NWS values.
T = Trace of Precipitation, MM = Missing Value Source: NWS Daily Summary

Daily Weather History Graph

Daily Weather History Graph

Search for Another Location

Airport or City:

Trip Planner

Search our weather history database for the weather conditions in past years. The results will help you decide how hot, cold, wet, or windy it might be!

Date:

Astronomy

Sep. 05, 2013 Rise Set
Actual Time 6:44 AM EDT 7:43 PM EDT
Civil Twilight 6:15 AM EDT 8:12 PM EDT
Nautical Twilight 5:41 AM EDT 8:46 PM EDT
Astronomical Twilight 5:04 AM EDT 9:22 PM EDT
Moon 6:56 AM EDT (9/5) 7:31 PM EDT (9/5)
Length of Visible Light 13h 56m
Length of Day
12h 58m
New Moon, 0% of the Moon is Illuminated
Sep 5
New Moon
Sep 12
First Quarter
Sep 19
Full
Sep 26
Last Quarter
Oct 4
New

Hourly Weather History & Observations

Time (EDT) Temp. Dew Point Humidity Pressure Visibility Wind Dir Wind Speed Gust Speed Precip Events Conditions
12:53 AM 62.1 °F 57.9 °F 86% 30.00 in 10.0 mi North 9.2 mph - N/A   Mostly Cloudy
1:12 AM 62.6 °F 57.2 °F 82% 30.01 in 10.0 mi North 11.5 mph 16.1 mph N/A   Mostly Cloudy
1:25 AM 60.8 °F 55.4 °F 82% 30.02 in 10.0 mi NNW 10.4 mph - N/A   Mostly Cloudy
1:40 AM 60.8 °F 55.4 °F 82% 30.02 in 10.0 mi North 10.4 mph - N/A   Scattered Clouds
1:53 AM 59.0 °F 54.0 °F 83% 30.01 in 10.0 mi NNW 8.1 mph - N/A   Partly Cloudy
2:53 AM 57.0 °F 51.1 °F 81% 30.03 in 10.0 mi NNW 5.8 mph - N/A   Clear
3:53 AM 55.9 °F 50.0 °F 80% 30.04 in 10.0 mi NNW 5.8 mph - N/A   Clear
4:53 AM 55.0 °F 50.0 °F 83% 30.06 in 10.0 mi NNW 5.8 mph - N/A   Clear
5:53 AM 55.0 °F 51.1 °F 86% 30.07 in 10.0 mi Calm Calm - N/A   Clear
6:53 AM 53.1 °F 50.0 °F 89% 30.09 in 10.0 mi Calm Calm - N/A   Clear
6:58 AM 53.6 °F 50.0 °F 88% 30.09 in 10.0 mi Calm Calm - N/A   Mostly Cloudy
7:53 AM 55.9 °F 53.1 °F 90% 30.11 in 10.0 mi West 3.5 mph - N/A   Mostly Cloudy
8:53 AM 60.1 °F 52.0 °F 75% 30.13 in 10.0 mi WNW 8.1 mph - N/A   Mostly Cloudy
9:53 AM 61.0 °F 53.1 °F 75% 30.14 in 10.0 mi NNW 12.7 mph - N/A   Mostly Cloudy
10:53 AM 62.1 °F 50.0 °F 65% 30.16 in 10.0 mi North 11.5 mph - N/A   Mostly Cloudy
11:53 AM 63.0 °F 44.1 °F 50% 30.17 in 10.0 mi NNW 10.4 mph - N/A   Scattered Clouds
12:53 PM 63.0 °F 43.0 °F 48% 30.18 in 10.0 mi NNE 8.1 mph 20.7 mph N/A   Partly Cloudy
1:53 PM 63.0 °F 42.1 °F 46% 30.19 in 10.0 mi North 10.4 mph 19.6 mph N/A   Partly Cloudy
2:53 PM 64.0 °F 42.1 °F 45% 30.18 in 10.0 mi North 15.0 mph 20.7 mph N/A   Scattered Clouds
3:53 PM 64.0 °F 39.0 °F 40% 30.19 in 10.0 mi NNW 13.8 mph - N/A   Scattered Clouds
4:53 PM 62.1 °F 37.9 °F 41% 30.20 in 10.0 mi NNW 12.7 mph - N/A   Scattered Clouds
5:53 PM 62.1 °F 39.0 °F 43% 30.20 in 10.0 mi North 10.4 mph - N/A   Partly Cloudy
6:53 PM 60.1 °F 39.0 °F 46% 30.21 in 10.0 mi North 8.1 mph - N/A   Scattered Clouds
7:53 PM 55.9 °F 39.0 °F 53% 30.22 in 10.0 mi North 3.5 mph - N/A   Scattered Clouds
8:53 PM 54.0 °F 37.9 °F 55% 30.24 in 10.0 mi NNW 6.9 mph - N/A   Partly Cloudy
9:53 PM 53.1 °F 37.9 °F 57% 30.25 in 10.0 mi NNW 4.6 mph - N/A   Partly Cloudy
10:53 PM 52.0 °F 39.0 °F 61% 30.26 in 10.0 mi NNW 4.6 mph - N/A   Partly Cloudy
11:53 PM 51.1 °F 39.9 °F 66% 30.25 in 10.0 mi North 4.6 mph - N/A   Clear